Regional Weather Roundup
Issued by NWS

Home | Current Version | Previous Version | Text Only | Print | Product List | Glossary Off
Versions: 1 2 3 4 5 6 7 8 9 10 11 12 13 14 15 16 17 18 19 20 21 22 23 24 25 26 27 28 29 30 31 32 33 34 35 36 37 38 39 40 41 42 43 44 45 46 47 48 49 50

000
ASUS45 KSLC 211310
RWRUT

UTAH REGIONAL WEATHER ROUNDUP
NATIONAL WEATHER SERVICE SALT LAKE CITY UT
600 AM MST SUN JAN 21 2018

UTZ001>011-023>025-211400-

NORTHERN UTAH

CITY           SKY/WX    TMP DP  RH WIND       PRES   REMARKS
BRIGHAM CITY   CLOUDY    29  19  64 CALM      30.10R
HILL AFB       CLOUDY    25  19  76 NW6       30.07R WCI  18
LOGAN          CLOUDY    25  19  78 SW3       30.08S
OGDEN          CLOUDY    26  20  77 NW5       30.08R WCI  20
SALT LAKE CITY MOCLDY    28  22  78 N6        30.09R WCI  22
TOOELE VALLEY  CLOUDY    27  23  86 NW12      30.11S WCI  16
WENDOVER       CLOUDY    32  18  56 NW15      30.13S WCI  22
HEBER CITY       N/A     21  12  68 NE13      29.99R WCI   9
WEST JORDAN    CLOUDY    23  22  95 N6        30.09R WCI  16

$$

UTZ011>015-024>027-211400-

CENTRAL/NORTHEAST UTAH

CITY           SKY/WX    TMP DP  RH WIND       PRES   REMARKS
PROVO AIRPORT  FLURRIES  28  19  69 NW28G36   30.07R WCI  13
MOAB/CANYONLAN CLOUDY    30  22  72 W9        29.83R WCI  22
DELTA          CLOUDY    23  19  86 CALM      30.10R
PRICE          CLOUDY    25  13  60 NW17G33   29.86R WCI  12
RICHFIELD      CLOUDY    25  19  80 CALM      30.07R
ROOSEVELT      MOCLDY    27  21  80 W6        29.88R WCI  20
VERNAL         CLOUDY    27  20  75 MISG      29.84R

$$

UTZ013>016-019>022-027-211400-

SOUTHERN UTAH

CITY           SKY/WX    TMP DP  RH WIND       PRES   REMARKS
BRYCE CANYON   LGT SNOW  15  11  83 NW20G28   29.93R FOG     WCI  -2
CEDAR CITY     CLOUDY    18  16  92 NW3       30.07R
MILFORD        CLOUDY    21  15  78 NE3       30.10R
ST GEORGE      MOSUNNY   33  23  66 W5        30.13R WCI  29
HANKSVILLE     CLOUDY    32  12  43 NW9G18    29.92R WCI  24
KANAB          CLEAR     25  18  74 SE6       30.07R WCI  18
BLANDING         N/A     26  18  73 W16G25    29.84R WCI  13

$$

REGIONAL REPORTS     COLORADO/ARIZONA

CITY           SKY/WX    TMP DP  RH WIND       PRES   REMARKS
CRAIG, CO      LGT SNOW  21  17  84 SW10      29.74R VSB 3/4 WCI  10
GRAND JUNCTION LGT SNOW  28  28 100 NW13      29.80R VSB 1   WCI  17
RIFLE, CO      CLOUDY    28  23  81 W14       29.74R WCI  17
MONTROSE, CO   CLOUDY    28  26  92 N7        29.76R WCI  21
CORTEZ, CO     LGT SNOW  27  25  92 S17       29.76S FOG     WCI  14
COLORADO CITY  PTSUNNY   30  19  64 NW16      30.08R WCI  19
PAGE, AZ       CLOUDY    34  13  41 W15G22    29.93R WCI  24
GRAND CANYON   CLOUDY    19  14  81 VRB5      29.96R WCI  12
KINGMAN, AZ    CLEAR    N/A N/A N/A NW8       30.14R
FLAGSTAFF, AZ  LGT SNOW  18  12  77 NW9G23    29.91S WCI   7

$$

REGIONAL REPORTS    NEVADA/IDAHO/WYOMING

CITY           SKY/WX    TMP DP  RH WIND       PRES   REMARKS
LAS VEGAS, NV  CLEAR     44  13  28 N15       30.18R
ELY, NY        PTCLDY     6   2  83 NE5       30.12R WCI  -3
ELKO, NV       CLEAR     21  17  84 CALM      30.18R
POCATELLO, ID  MOCLDY    25  22  88 SW12      30.10R WCI  14
BURLEY, ID     MOCLDY    28  24  85 W7        30.11R WCI  21
FORT BRIDGER,  CLOUDY    17  14  90 W14       29.95R WCI   2
EVANSTON, WY   CLOUDY    12   8  84 W7        29.95R WCI   1
ROCK SPRINGS,  CLOUDY    19  14  81 N12       29.88R WCI   7

$$



USA.gov is the U.S. government's official web portal to all federal, state and local government web resources and services.